Location: Newark
(11.6000°N, 43.1667°E)
Time: 08:01:13
(UTC+00:00)

OTV 5 (USA 277) - Visible Passes

Search period start: 22 September 2019 00:00
Search period end: 02 October 2019 00:00
Orbit: 295 x 339 km, 54.5° (Epoch: 08 September)

Date Brightness Start Highest point End Pass type
(mag) Time Alt. Az. Time Alt. Az. Time Alt. Az.
25 Sep ? 02:07:05 10° SE 02:07:51 11° ESE 02:08:37 10° ESE visible
26 Sep ? 02:19:33 10° SSW 02:22:17 47° ESE 02:25:01 10° NE visible
27 Sep ? 02:34:14 10° WSW 02:36:46 29° NW 02:39:17 10° N visible
28 Sep ? 01:17:46 20° ESE 01:17:46 20° ESE 01:19:24 10° ENE visible
29 Sep ? 01:33:16 22° NNE 01:33:16 22° NNE 01:34:25 10° NNE visible
